Weather History for Lawrence, MA

Change the Weather History Date:

Saturday, February 9, 2013

  Actual Average Record
Temperature  
Mean Temperature 19 °F -  
Max Temperature 21 °F 35 °F 55 °F (1949)
Min Temperature 17 °F 15 °F -19 °F (1934)
Degree Days  
Heating Degree Days 46    
Moisture  
Dew Point 11 °F    
Average Humidity 72    
Maximum Humidity 86    
Minimum Humidity 45    
Precipitation  
Precipitation 0.22 in - - ()
Sea Level Pressure  
Sea Level Pressure 29.80 in    
Wind  
Wind Speed 23 mph (NW)    
Max Wind Speed 71 mph    
Max Gust Speed 31 mph    
Visibility 3 miles    
Events Fog , Snow    
Averages and records for this station are not official NWS values.
T = Trace of Precipitation, MM = Missing Value Source: NWS Daily Summary

Daily Weather History Graph

Daily Weather History Graph

Search for Another Location

Airport:

Trip Planner

Search our weather history database for the weather conditions in past years. The results will help you decide how hot, cold, wet, or windy it might be!

Date:

Astronomy

Feb. 09, 2013 Rise Set
Actual Time 6:49 AM EST 5:08 PM EST
Civil Twilight 6:19 AM EST 5:38 PM EST
Nautical Twilight 5:46 AM EST 6:11 PM EST
Astronomical Twilight 5:13 AM EST 6:44 PM EST
Moon 5:58 AM EST (2/9) 4:48 PM EST (2/9)
Length of Visible Light 11h 18m
Length of Day
10h 19m
Waning Crescent, 0% of the Moon is Illuminated
Feb 9
Waning Crescent
Feb 10
New
Feb 17
First Quarter
Feb 25
Full
Mar 4
Last Quarter

Hourly Weather History & Observations

Time (EST) Temp. Windchill Dew Point Humidity Pressure Visibility Wind Dir Wind Speed Gust Speed Precip Events Conditions
12:32 AM 17.6 °F - 12.2 °F 79% 29.65 in 0.8 mi North - - 0.01 in   Haze
12:51 AM 17.6 °F - 12.2 °F 79% 29.63 in 0.5 mi North - - 0.01 in   Haze
12:54 AM 17.1 °F - 12.0 °F 81% 29.64 in 0.5 mi North - - 0.01 in   Haze
1:26 AM 17.6 °F - 12.2 °F 79% 29.64 in 0.5 mi North - - 0.01 in   Haze
1:54 AM 17.1 °F - 12.0 °F 81% 29.65 in 0.5 mi North - - 0.03 in   Haze
2:54 AM 17.1 °F - 12.0 °F 81% 29.62 in 0.2 mi North - - 0.03 in   Haze
3:29 AM 17.6 °F - 12.2 °F 79% 29.63 in 0.5 mi North - - 0.01 in   Haze
3:54 AM 18.0 °F - 12.9 °F 81% 29.64 in 0.5 mi North - - 0.02 in   Haze
4:04 AM 17.6 °F - 12.2 °F 79% 29.64 in 0.5 mi North - - 0.01 in   Haze
4:54 AM 19.0 °F - 14.0 °F 81% 29.65 in 0.5 mi North - - 0.04 in   Haze
5:54 AM 19.0 °F - 14.0 °F 81% 29.66 in 0.5 mi North - - 0.04 in   Haze
6:24 AM 19.4 °F - 15.8 °F 86% 29.67 in 0.5 mi North - - 0.02 in   Haze
6:39 AM 19.4 °F - 15.8 °F 86% 29.68 in 0.8 mi North - - 0.03 in   Haze
6:54 AM 19.9 °F - 15.1 °F 81% 29.69 in 0.8 mi North - - 0.03 in   Haze
7:04 AM 19.4 °F - 15.8 °F 86% 29.69 in 1.0 mi North - - 0.01 in   Haze
7:19 AM 19.4 °F - 15.8 °F 86% 29.70 in 1.2 mi North - - 0.01 in   Haze
7:27 AM 21.2 °F - 15.8 °F 80% 29.70 in 0.5 mi North - - 0.01 in   Haze
7:54 AM 21.0 °F -4.2 °F 16.0 °F 81% 29.71 in 0.5 mi NNW 71.3 mph 178.4 mph 0.01 in   Haze
7:58 AM 21.2 °F 9.5 °F 17.6 °F 86% 29.71 in 0.2 mi NNW 11.5 mph 183.0 mph N/A Fog Light Freezing Fog
8:35 AM 19.4 °F 6.6 °F 15.8 °F 86% 29.72 in 0.8 mi NNW 12.7 mph 20.7 mph 0.00 in Snow Light Snow
8:54 AM 19.0 °F 4.0 °F 14.0 °F 81% 29.75 in 0.5 mi NNW 17.3 mph 27.6 mph 0.00 in Snow Snow
9:07 AM 19.4 °F 6.0 °F 12.2 °F 74% 29.74 in 0.8 mi NNW 13.8 mph 26.5 mph 0.00 in Snow Light Snow
9:16 AM 19.4 °F 6.6 °F 12.2 °F 74% 29.75 in 0.8 mi NNW 12.7 mph 25.3 mph 0.00 in Snow Light Snow
9:39 AM 19.4 °F 3.2 °F 12.2 °F 74% 29.76 in 0.5 mi NNW 20.7 mph 31.1 mph 0.00 in Snow Snow
9:54 AM 19.0 °F 6.1 °F 12.9 °F 77% 29.78 in 0.5 mi NNW 12.7 mph 24.2 mph 0.00 in Snow Snow
10:04 AM 19.4 °F 8.6 °F 14.0 °F 80% 29.77 in 0.5 mi NW 9.2 mph 21.9 mph 0.00 in Snow Snow
10:36 AM 19.4 °F 5.5 °F 12.2 °F 74% 29.79 in 0.8 mi NW 15.0 mph 24.2 mph 0.01 in Snow Light Snow
10:54 AM 19.0 °F 5.6 °F 12.0 °F 74% 29.80 in 0.8 mi NW 13.8 mph 25.3 mph 0.01 in Snow Light Snow
11:35 AM 19.4 °F 7.9 °F 12.2 °F 74% 29.79 in 1.0 mi NNW 10.4 mph 20.7 mph 0.00 in Snow Light Snow
11:43 AM 19.4 °F 4.1 °F 12.2 °F 74% 29.80 in 1.0 mi NW 18.4 mph 28.8 mph 0.00 in Snow Light Snow
11:54 AM 19.9 °F 7.3 °F 12.9 °F 74% 29.81 in 1.0 mi NW 12.7 mph 23.0 mph 0.00 in Snow Light Snow
11:59 AM 19.4 °F 4.5 °F 12.2 °F 74% 29.81 in 0.8 mi NW 17.3 mph 25.3 mph 0.00 in Snow Light Snow
12:37 PM 19.4 °F 4.5 °F 12.2 °F 74% 29.82 in 1.0 mi NW 17.3 mph 25.3 mph 0.00 in Snow Light Snow
12:54 PM 21.0 °F 7.1 °F 12.0 °F 68% 29.84 in 2.0 mi NNW 16.1 mph 24.2 mph 0.00 in Snow Light Snow
1:13 PM 21.2 °F 8.3 °F 10.4 °F 63% 29.84 in 4.0 mi NNW 13.8 mph 28.8 mph 0.00 in Snow Light Snow
1:32 PM 21.2 °F 6.4 °F 10.4 °F 63% 29.85 in 6.0 mi NNW 18.4 mph 27.6 mph 0.00 in Snow Light Snow
1:54 PM 21.9 °F 8.2 °F 10.0 °F 60% 29.87 in 10.0 mi NNW 16.1 mph 29.9 mph 0.00 in   Overcast
2:54 PM 21.9 °F 7.3 °F 8.1 °F 55% 29.92 in 10.0 mi NW 18.4 mph 26.5 mph 0.00 in   Overcast
3:54 PM 21.0 °F 6.6 °F 9.0 °F 60% 29.96 in 5.0 mi NNW 17.3 mph 29.9 mph 0.00 in   Mostly Cloudy
4:54 PM 21.9 °F 11.7 °F 7.0 °F 53% 30.00 in 9.0 mi NNW 9.2 mph 27.6 mph 0.00 in   Overcast
5:54 PM 21.0 °F 6.2 °F 5.0 °F 50% 30.04 in 10.0 mi NNW 18.4 mph 25.3 mph N/A   Clear
6:54 PM 19.9 °F 7.3 °F 5.0 °F 52% 30.09 in 10.0 mi NW 12.7 mph 27.6 mph N/A   Clear
7:54 PM 19.0 °F 5.0 °F 3.0 °F 50% 30.11 in 10.0 mi NW 15.0 mph 26.5 mph N/A   Clear
8:54 PM 18.0 °F 5.4 °F 3.0 °F 52% 30.14 in 10.0 mi NW 11.5 mph 23.0 mph N/A   Clear
9:54 PM 17.1 °F 5.8 °F 1.0 °F 50% 30.17 in 10.0 mi NW 9.2 mph 20.7 mph N/A   Clear
10:54 PM 17.1 °F 5.8 °F 1.0 °F 50% 30.19 in 10.0 mi NW 9.2 mph 17.3 mph N/A   Clear
11:54 PM 17.1 °F 5.0 °F -0.9 °F 45% 30.20 in 10.0 mi NW 10.4 mph 17.3 mph N/A   Clear